Fargo, ND

4:13 PM CST on December 05, 2019 (GMT -0600)
Hector International

Weather History for KFAR - October, 2019

Change the Weather History Date:

Sunday, October 13, 2019

  Actual Average Record
Temperature  
Mean Temperature 38 °F 47 °F  
Max Temperature 43 °F 58 °F 84 °F (1934)
Min Temperature 32 °F 36 °F 17 °F (1979)
Degree Days  
Heating Degree Days 28 18  
Month to date heating degree days 262 202  
Since 1 July heating degree days 477 472  
Cooling Degree Days 0 0  
Month to date cooling degree days 0 0  
Year to date cooling degree days 527 548  
Moisture  
Dew Point 32 °F    
Average Humidity 88    
Maximum Humidity 100    
Minimum Humidity 62    
Precipitation  
Precipitation 0.03 in 0.08 in 1.50 in (1984)
Month to date precipitation 3.30 1.03  
Year to date precipitation 28.00 19.63  
Snow  
Snow 0.00 in 0.00 in 0.10 in (1997)
Month to date snowfall 4.5 0.1  
Since 1 July snowfall 4.5 0.1  
Since 1 September snowfall 4.5 0.1  
Snow Depth 2.00 in    
Sea Level Pressure  
Sea Level Pressure 29.77 in    
Wind  
Wind Speed 12 mph ()    
Max Wind Speed 17 mph    
Max Gust Speed 24 mph    
Visibility 7.8 miles    
Events Snow    
T = Trace of Precipitation, MM = Missing Value Source: Averaged Metar Reports

Daily Weather History Graph

Daily Weather History Graph

Search for Another Location

Airport or City:

Astronomy

Oct. 13, 2019 Rise Set
Actual Time 7:42 AM CDT 6:44 PM CDT
Civil Twilight 7:11 AM CDT 7:14 PM CDT
Nautical Twilight 6:36 AM CDT 7:49 PM CDT
Astronomical Twilight 6:01 AM CDT 8:24 PM CDT
Moon 7:10 PM CDT (10/13) 7:12 AM CDT (10/13)
Length of Visible Light 12h 03m
Length of Day
11h 01m
Full, 100% of the Moon is Illuminated
Oct 13
Full
Oct 13
Full
Oct 21
Last Quarter
Oct 27
New
Nov 4
First Quarter

Hourly Weather History & Observations

Time (CDT) Temp. Windchill Dew Point Humidity Pressure Visibility Wind Dir Wind Speed Gust Speed Precip Events Conditions
12:53 AM 34.0 °F 24.2 °F 32.0 °F 92% 29.67 in 6.0 mi WNW 15.0 mph - 0.00 in Snow Light Snow
1:05 AM 34.0 °F 24.2 °F 32.0 °F 92% 29.64 in 9.0 mi WNW 15.0 mph - 0.00 in   Overcast
1:18 AM 34.0 °F 24.2 °F 32.0 °F 92% 29.64 in 10.0 mi WNW 15.0 mph - 0.00 in   Overcast
1:26 AM 34.0 °F 25.0 °F 32.0 °F 92% 29.64 in 10.0 mi WNW 12.7 mph - 0.00 in   Overcast
1:53 AM 33.1 °F 23.4 °F 32.0 °F 96% 29.68 in 10.0 mi WNW 13.8 mph - 0.00 in   Overcast
2:03 AM 33.1 °F 23.4 °F 32.0 °F 96% 29.65 in 10.0 mi WNW 13.8 mph 21.9 mph N/A   Overcast
2:21 AM 33.1 °F 23.4 °F 32.0 °F 96% 29.65 in 10.0 mi WNW 13.8 mph - N/A   Overcast
2:53 AM 33.1 °F 23.9 °F 32.0 °F 96% 29.69 in 9.0 mi WNW 12.7 mph - 0.00 in Snow Light Snow
3:42 AM 33.1 °F 24.4 °F 32.0 °F 96% 29.67 in 5.0 mi WNW 11.5 mph - 0.00 in Snow Light Snow
3:48 AM 33.8 °F 25.3 °F 32.0 °F 93% 29.67 in 5.0 mi WNW 11.5 mph - 0.00 in Snow Light Snow
3:53 AM 33.1 °F 23.9 °F 32.0 °F 96% 29.70 in 9.0 mi WNW 12.7 mph - 0.00 in   Overcast
3:59 AM 33.1 °F 24.4 °F 32.0 °F 96% 29.67 in 10.0 mi WNW 11.5 mph - N/A   Overcast
4:12 AM 33.1 °F 24.9 °F 32.0 °F 96% 29.67 in 4.0 mi WNW 10.4 mph - 0.00 in Snow Light Snow
4:29 AM 33.8 °F 24.3 °F 32.0 °F 93% 29.67 in 3.0 mi WNW 13.8 mph - N/A Snow Light Snow
4:38 AM 33.1 °F 23.9 °F 32.0 °F 96% 29.68 in 2.0 mi WNW 12.7 mph - 0.00 in Snow Light Snow
4:53 AM 33.1 °F 24.4 °F 32.0 °F 96% 29.71 in 2.5 mi WNW 11.5 mph - 0.00 in Snow Light Snow
5:08 AM 32.0 °F 22.1 °F 32.0 °F 100% 29.68 in 2.0 mi WNW 13.8 mph - 0.01 in Snow Light Snow
5:34 AM 33.1 °F 23.4 °F 32.0 °F 96% 29.68 in 2.5 mi WNW 13.8 mph - 0.01 in Snow Light Snow
5:42 AM 33.1 °F 24.4 °F 32.0 °F 96% 29.68 in 4.0 mi WNW 11.5 mph - 0.01 in Snow Light Snow
5:53 AM 33.1 °F 23.4 °F 32.0 °F 96% 29.72 in 4.0 mi WNW 13.8 mph - 0.01 in Snow Light Snow
6:02 AM 33.1 °F 23.4 °F 32.0 °F 96% 29.69 in 2.0 mi WNW 13.8 mph - 0.00 in Snow Light Snow
6:18 AM 32.0 °F 22.1 °F 32.0 °F 100% 29.69 in 2.5 mi WNW 13.8 mph - 0.01 in Snow Light Snow
6:24 AM 33.1 °F 22.6 °F 30.9 °F 92% 29.69 in 3.0 mi WNW 16.1 mph - 0.01 in Snow Light Snow
6:44 AM 33.1 °F 23.9 °F 30.9 °F 92% 29.70 in 4.0 mi WNW 12.7 mph - 0.01 in Snow Light Snow
6:53 AM 33.1 °F 23.9 °F 30.9 °F 92% 29.73 in 4.0 mi WNW 12.7 mph - 0.01 in Snow Light Snow
7:53 AM 33.1 °F 23.4 °F 30.9 °F 92% 29.75 in 10.0 mi WNW 13.8 mph - 0.01 in   Overcast
8:53 AM 34.0 °F 24.6 °F 30.9 °F 89% 29.78 in 10.0 mi WNW 13.8 mph - 0.00 in   Overcast
9:53 AM 34.0 °F 24.6 °F 32.0 °F 92% 29.79 in 10.0 mi NW 13.8 mph - N/A   Overcast
10:29 AM 36.0 °F 26.3 °F 32.0 °F 86% 29.78 in 10.0 mi NW 16.1 mph - N/A   Overcast
10:39 AM 36.0 °F 26.3 °F 32.0 °F 86% 29.78 in 10.0 mi NW 16.1 mph - N/A   Overcast
10:53 AM 36.0 °F 26.3 °F 32.0 °F 86% 29.81 in 10.0 mi NW 16.1 mph 24.2 mph N/A   Overcast
11:53 AM 37.0 °F 27.7 °F 32.0 °F 82% 29.83 in 10.0 mi NW 16.1 mph - N/A   Overcast
12:07 PM 37.0 °F 28.1 °F 32.0 °F 82% 29.80 in 10.0 mi NW 15.0 mph - N/A   Overcast
12:53 PM 37.0 °F 28.9 °F 32.0 °F 82% 29.85 in 10.0 mi NW 12.7 mph - N/A   Overcast
1:53 PM 39.0 °F 30.6 °F 32.0 °F 76% 29.86 in 10.0 mi NW 15.0 mph - N/A   Overcast
2:53 PM 41.0 °F 35.2 °F 32.0 °F 70% 29.86 in 10.0 mi North 9.2 mph - N/A   Mostly Cloudy
3:18 PM 42.1 °F 35.7 °F 30.9 °F 65% 29.84 in 10.0 mi NW 11.5 mph - N/A   Mostly Cloudy
3:53 PM 42.1 °F 35.7 °F 30.0 °F 62% 29.88 in 10.0 mi NW 11.5 mph - N/A   Overcast
4:53 PM 41.0 °F 33.1 °F 30.0 °F 65% 29.89 in 10.0 mi WNW 15.0 mph - N/A   Overcast
5:53 PM 39.9 °F 32.1 °F 30.9 °F 70% 29.90 in 10.0 mi WNW 13.8 mph - N/A   Overcast
6:53 PM 37.0 °F 29.3 °F 30.9 °F 79% 29.94 in 10.0 mi WNW 11.5 mph - N/A   Mostly Cloudy
7:53 PM 36.0 °F 29.6 °F 30.9 °F 82% 29.96 in 10.0 mi WNW 8.1 mph - N/A   Partly Cloudy
8:15 PM 36.0 °F 29.0 °F 30.9 °F 82% 29.92 in 10.0 mi WNW 9.2 mph - N/A   Mostly Cloudy
8:51 PM 37.4 °F 30.3 °F 30.2 °F 75% 29.92 in 10.0 mi NW 10.4 mph - N/A   Overcast
8:53 PM 37.0 °F 30.4 °F 30.9 °F 79% 29.96 in 10.0 mi NW 9.2 mph - N/A   Overcast
9:53 PM 36.0 °F 31.1 °F 30.9 °F 82% 29.97 in 10.0 mi WNW 5.8 mph - N/A   Overcast
10:53 PM 35.1 °F 32.2 °F 32.0 °F 89% 29.96 in 10.0 mi WSW 3.5 mph - N/A   Overcast
11:53 PM 36.0 °F 33.3 °F 33.1 °F 89% 29.96 in 10.0 mi WSW 3.5 mph - N/A   Overcast